Location: Peebles
(55.6412°N, 3.1714°W)
Time: 22:41:29
(UTC+00:00)

ARGOS - Visible Passes

Search period start: 27 January 2022 00:00
Search period end: 06 February 2022 00:00
Orbit: 820 x 835 km, 98.4° (Epoch: 27 January)

Date Brightness Start Highest point End Pass type
(mag) Time Alt. Az. Time Alt. Az. Time Alt. Az.
27 Jan 6.2 05:47:58 10° NE 05:50:47 14° E 05:53:35 10° ESE visible
27 Jan 3.7 07:26:40 10° NNE 07:32:06 68° ESE 07:37:29 10° S visible
27 Jan 3.5 17:17:43 10° SE 17:22:46 44° ENE 17:27:52 10° N visible
27 Jan 4.5 18:58:05 10° SSW 19:03:08 41° W 19:08:13 10° NNW visible
28 Jan 6.7 05:31:32 10° ENE 05:31:45 10° ENE 05:31:59 10° E visible
28 Jan 4.2 07:08:03 10° NNE 07:13:21 51° E 07:18:37 10° S visible
28 Jan 3.9 18:39:05 10° S 18:44:20 55° W 18:49:39 10° NNW visible
28 Jan 6.4 20:24:29 10° W 20:25:52 11° W 20:27:16 10° WNW visible
29 Jan 4.8 06:49:30 10° NNE 06:54:34 38° E 06:59:35 10° SSE visible
29 Jan 3.4 18:20:15 10° S 18:25:37 74° WSW 18:31:02 10° NNW visible
29 Jan 6.1 20:03:48 10° WSW 20:06:52 15° W 20:09:56 10° NW visible
30 Jan 5.4 06:31:03 10° NNE 06:35:44 29° E 06:40:23 10° SSE visible
30 Jan 3.1 18:01:33 10° SSE 18:06:55 85° ENE 18:12:21 10° NNW visible
30 Jan 5.7 19:43:57 10° SW 19:47:54 21° W 19:51:53 10° NW visible
31 Jan 5.9 06:12:42 10° NE 06:16:49 22° E 06:20:56 10° SE visible
31 Jan 3.1 17:42:59 10° SSE 17:48:17 65° ENE 17:53:38 10° NNW visible
31 Jan 5.3 19:24:28 10° SSW 19:29:00 27° W 19:33:34 10° NNW visible
01 Feb 6.2 05:54:35 10° NE 05:57:53 16° E 06:01:10 10° ESE visible
01 Feb 3.4 17:24:33 10° SE 17:29:42 49° ENE 17:34:53 10° N visible
01 Feb 4.7 19:05:13 10° SSW 19:10:09 36° W 19:15:08 10° NNW visible
02 Feb 6.5 05:37:00 10° ENE 05:38:53 12° E 05:40:46 10° E visible
02 Feb 4.0 07:15:00 10° NNE 07:20:22 58° E 07:25:42 10° S visible
02 Feb 4.2 18:46:09 10° S 18:51:21 49° W 18:56:35 10° NNW visible
03 Feb 4.6 06:56:25 10° NNE 07:01:35 43° E 07:06:44 10° SSE visible
03 Feb 3.6 18:27:15 10° S 18:32:36 65° WSW 18:37:59 10° NNW visible
03 Feb 6.2 20:11:24 10° WSW 20:13:57 13° W 20:16:32 10° NW visible
04 Feb 5.2 06:37:55 10° NNE 06:42:47 32° E 06:47:36 10° SSE visible
04 Feb 3.2 18:08:30 10° SSE 18:13:53 86° WSW 18:19:20 10° NNW visible
04 Feb 5.9 19:51:21 10° SW 19:54:59 18° W 19:58:39 10° NW visible
05 Feb 5.7 06:19:30 10° NE 06:23:54 24° E 06:28:16 10° SE visible
05 Feb 3.1 17:49:53 10° SSE 17:55:14 73° ENE 18:00:38 10° NNW visible
05 Feb 5.5 19:31:43 10° SW 19:36:03 24° W 19:40:25 10° NW visible
